Regional Weather Roundup
Issued by NWS

Home | Current Version | Previous Version | Graphics & Text | Print | Product List | Glossary On
Versions: 1 2 3 4 5 6 7 8 9 10 11 12 13 14 15 16 17 18 19 20 21 22 23 24 25 26 27 28 29 30 31 32 33 34 35 36 37 38 39 40 41 42 43 44 45 46 47 48 49 50
202
ASUS43 KIND 281759
RWRIN

WEATHER ROUNDUP FOR INDIANA
NATIONAL WEATHER SERVICE INDIANAPOLIS IN
200 PM EDT FRI APR 28 2017

NOTE: "FAIR" INDICATES FEW OR NO CLOUDS BELOW 12,000 FEET WITH NO
SIGNIFICANT WEATHER AND/OR OBSTRUCTIONS TO VISIBILITY.

* - STATION DOES NOT REPORT WEATHER SUCH AS PRECIPITATION OR FOG.

+ - STATION NOT QUALITY CONTROLLED BY THE NATIONAL WEATHER SERVICE.
    USE DATA WITH CAUTION...ESPECIALLY DEWPOINT AND RELATIVE
    HUMIDITY OBSERVATIONS.

INZ001>003-010>013-019-020-281900-
NORTHWEST INDIANA

CITY           SKY/WX    TMP DP  RH WIND       PRES   REMARKS
GARY /AIRPORT/ CLOUDY    57  45  62 SE7       29.95F
MONTICELLO +   CLOUDY    59  46  63 SE7       29.92F
6HR MIN TEMP:  48; 6HR MAX TEMP:  59;

RENSSELAER +   CLOUDY    55  46  71 E8        29.91F

$$

LMZ046-743>745-281900-
SOUTHERN LAKE MICHIGAN

STATION/POSITION TIME  TEMP    WIND        PRES    WAVE
                       AIR SEA DIR/SP/G            HT
                 (UTC) (F)     (DEG/KT/KT) (MB)    (FT)
BURNS HARBOR     1740   56     190/ 13/ 17 1014.6F
MICHIGAN CITY    1730   55     160/ 11/ 14   N/A
5NW MICH CITY    1750   53 46                N/A     1

$$

INZ004-005-014>016-021>024-281900-
NORTH CENTRAL INDIANA

CITY           SKY/WX    TMP DP  RH WIND       PRES   REMARKS
ELKHART        MOSUNNY   59  41  51 S12       29.97F
GOSHEN         PTSUNNY   61  42  49 S17       29.98F
6HR MIN TEMP:  47; 6HR MAX TEMP:  61;

PERU/GRISSOM   LGT RAIN  55  52  88 S15       29.94F
SOUTH BEND     CLOUDY    57  43  59 S14       29.97F
6HR MIN TEMP:  44; 6HR MAX TEMP:  57;


$$

INZ006>009-017-018-025>027-281900-
NORTHEAST INDIANA

CITY           SKY/WX    TMP DP  RH WIND       PRES   REMARKS
ANGOLA *+      SUNNY     61  52  72 S12       29.99S
FORT WAYNE     CLOUDY    57  45  64 S8        30.00F
6HR MIN TEMP:  47; 6HR MAX TEMP:  58;

KENDALLVILLE + CLOUDY    57  43  59 S10G16    29.99F

$$

INZ028-029-035-036-043>045-051>053-281900-
WEST CENTRAL INDIANA

CITY           SKY/WX    TMP DP  RH WIND       PRES   REMARKS
CRAWFORDSVL +  RAIN      52  52 100 SE14G20   29.96R
6HR MIN TEMP:  46; 6HR MAX TEMP:  52; 6HR PCP:  0.01;

GREENCASTLE +  CLOUDY    54  50  87 E6        29.94F
LAFAYETTE      CLOUDY    55  49  80 SE8       29.94F
6HR MIN TEMP:  46; 6HR MAX TEMP:  56; 6HR PCP: TRACE;

TERRE HAUTE    CLOUDY    56  49  77 SE10      29.91F
6HR MIN TEMP:  49; 6HR MAX TEMP:  56; 6HR PCP: TRACE;


$$

INZ030>032-037>040-046>048-054>057-064-065-281900-
CENTRAL INDIANA

CITY           SKY/WX    TMP DP  RH WIND       PRES   REMARKS
CP ATTERBURY + CLOUDY    59  50  72 SE7       29.97F
INDIANAPOLIS   CLOUDY    57  48  72 SE10      29.97F
6HR MIN TEMP:  49; 6HR MAX TEMP:  57; 6HR PCP: TRACE;

-EAGLE CREEK   CLOUDY    56  48  74 SE7       29.96F
6HR MIN TEMP:  49; 6HR MAX TEMP:  56; 6HR PCP: TRACE;

KOKOMO +       CLOUDY    55  50  83 S16       29.97F
6HR MIN TEMP:  47; 6HR MAX TEMP:  55; 6HR PCP: TRACE;

SHELBYVILLE    CLOUDY    62  47  57 SE8       29.97F
6HR MIN TEMP:  51; 6HR MAX TEMP:  63; 6HR PCP: TRACE;


$$

INZ033-034-041-042-049-050-058-059-281900-
EAST CENTRAL INDIANA

CITY           SKY/WX    TMP DP  RH WIND       PRES   REMARKS
MUNCIE         CLOUDY    57  48  72 S6        29.98F
6HR MIN TEMP:  49; 6HR MAX TEMP:  57; 6HR PCP: TRACE;

RICHMOND +     CLOUDY    55  48  76 SE7       30.00F

$$

INZ060-061-067>069-081>083-085>088-281900-
SOUTHWEST INDIANA

CITY           SKY/WX    TMP DP  RH WIND       PRES   REMARKS
EVANSVILLE     CLOUDY    67  55  65 E10       29.87F
6HR MIN TEMP:  53; 6HR MAX TEMP:  67; 6HR PCP:  0.01;


$$

INZ062-063-066-070>080-084-089>092-281900-
SOUTH CENTRAL AND SOUTHEAST INDIANA

CITY           SKY/WX    TMP DP  RH WIND       PRES   REMARKS
BLOOMINGTON    CLOUDY    57  49  74 E12       29.93F
6HR MIN TEMP:  47; 6HR MAX TEMP:  57; 6HR PCP: TRACE;

MADISON *+     CLOUDY    70  52  52 NE5       29.97F
SEYMOUR +      PTSUNNY   64  50  59 E5        29.96F

$$





USA.gov is the U.S. government's official web portal to all federal, state and local government web resources and services.